Location: Sweet Grass
(48.9965°N, 111.9649°W)
Time: 08:19:26
(UTC+00:00)

DIWATA 2B (PO-101) - Pass Details

Date: 03 April 2023
Orbit: 581 x 594 km, 98.0° (Epoch: 03 June)

Event Time Altitude Azimuth Distance (km) Brightness Sun altitude
Exits shadow 10:05:37 27° 332° (NNW) 1,134 ? -26.2°
Drops below altitude 10° 10:07:37 10° 340° (NNW) 1,911 ? -25.9°
Sets 10:09:48 0° 344° (NNW) 2,817 ? -25.7°
